| time (UTC) | temp F | wind direction | speed MPH | gust MPH | rain 1hr in | rain 24hr in | rain mn in | humidity % | barometer mb |
| 20260504015508 | 50 | 145 | 0.0 | 1.0 | 0.00 | 0.01 | 0.01 | 66 | 1016.6 |
| 20260504015008 | 51 | 145 | 0.0 | 1.0 | 0.00 | 0.01 | 0.01 | 65 | 1016.6 |
| 20260504014507 | 51 | 144 | 0.0 | 1.0 | 0.00 | 0.01 | 0.01 | 64 | 1016.4 |
| 20260504014003 | 51 | 145 | 0.0 | 2.0 | 0.00 | 0.01 | 0.01 | 63 | 1016.3 |
| 20260504013503 | 52 | 144 | 0.0 | 3.0 | 0.00 | 0.01 | 0.01 | 62 | 1016.2 |
| 20260504013011 | 52 | 144 | 1.0 | 3.0 | 0.00 | 0.01 | 0.01 | 62 | 1016.2 |
| 20260504012504 | 53 | 145 | 1.0 | 3.0 | 0.00 | 0.01 | 0.01 | 60 | 1016.2 |
| 20260504012007 | 53 | 144 | 1.0 | 3.0 | 0.00 | 0.01 | 0.01 | 60 | 1016.2 |
| 20260504011514 | 54 | 144 | 1.0 | 2.0 | 0.00 | 0.01 | 0.01 | 57 | 1016.2 |
| 20260504011007 | 54 | 144 | 1.0 | 2.0 | 0.00 | 0.01 | 0.01 | 55 | 1016.3 |
| 20260504010505 | 55 | 144 | 1.0 | 3.0 | 0.00 | 0.01 | 0.01 | 55 | 1016.3 |
| 20260504010020 | 55 | 145 | 1.0 | 3.0 | 0.00 | 0.01 | 0.01 | 54 | 1016.2 |
| 20260504005505 | 56 | 145 | 2.0 | 3.0 | 0.00 | 0.01 | 0.01 | 52 | 1016.3 |
| 20260504005005 | 56 | 145 | 1.0 | 2.0 | 0.00 | 0.01 | 0.01 | 52 | 1016.3 |
| 20260504004526 | 56 | 145 | 0.0 | 3.0 | 0.00 | 0.01 | 0.01 | 52 | 1016.3 |
| 20260504004010 | 56 | 144 | 1.0 | 3.0 | 0.00 | 0.01 | 0.01 | 52 | 1016.2 |
| 20260504003507 | 57 | 145 | 1.0 | 2.0 | 0.00 | 0.01 | 0.01 | 51 | 1016.3 |
| 20260504003025 | 57 | 145 | 0.0 | 3.0 | 0.00 | 0.01 | 0.01 | 51 | 1016.4 |
| 20260504002503 | 57 | 145 | 1.0 | 3.0 | 0.00 | 0.01 | 0.01 | 51 | 1016.4 |
| 20260504002003 | 57 | 125 | 1.0 | 3.0 | 0.00 | 0.02 | 0.01 | 51 | 1016.4 |
| 20260504001518 | 58 | 83 | 1.0 | 2.0 | 0.00 | 0.02 | 0.01 | 50 | 1016.4 |
| 20260504001005 | 58 | 226 | 1.0 | 2.0 | 0.00 | 0.03 | 0.01 | 49 | 1016.4 |
| 20260504000506 | 59 | 226 | 1.0 | 3.0 | 0.00 | 0.04 | 0.01 | 47 | 1016.6 |
| 20260504000015 | 60 | 226 | 1.0 | 6.0 | 0.00 | 0.04 | 0.01 | 46 | 1016.7 |
| 20260503235506 | 61 | 226 | 2.0 | 6.0 | 0.00 | 0.04 | 0.01 | 44 | 1016.8 |
| 20260503235007 | 61 | 226 | 3.0 | 6.0 | 0.00 | 0.04 | 0.01 | 43 | 1017.0 |
| 20260503234520 | 62 | 238 | 2.0 | 5.0 | 0.00 | 0.04 | 0.01 | 41 | 1017.0 |
| 20260503234013 | 63 | 240 | 2.0 | 6.0 | 0.00 | 0.04 | 0.01 | 43 | 1017.1 |
| 20260503233507 | 63 | 240 | 2.0 | 6.0 | 0.00 | 0.04 | 0.01 | 41 | 1017.1 |
| 20260503233026 | 63 | 217 | 2.0 | 9.0 | 0.00 | 0.04 | 0.01 | 42 | 1017.1 |
| 20260503232508 | 63 | 231 | 2.0 | 9.0 | 0.00 | 0.04 | 0.01 | 42 | 1017.1 |
| 20260503232016 | 64 | 246 | 3.0 | 8.0 | 0.00 | 0.04 | 0.01 | 40 | 1017.1 |
| 20260503231526 | 64 | 236 | 2.0 | 7.0 | 0.00 | 0.04 | 0.01 | 43 | 1017.2 |
| 20260503231012 | 63 | 229 | 3.0 | 10.0 | 0.00 | 0.04 | 0.01 | 42 | 1017.2 |
| 20260503230503 | 63 | 224 | 4.0 | 10.0 | 0.00 | 0.04 | 0.01 | 42 | 1017.2 |
| 20260503230016 | 64 | 205 | 4.0 | 13.0 | 0.00 | 0.04 | 0.01 | 42 | 1017.1 |
| 20260503225503 | 64 | 250 | 3.0 | 13.0 | 0.00 | 0.04 | 0.01 | 42 | 1017.2 |
| 20260503225006 | 64 | 221 | 4.0 | 10.0 | 0.00 | 0.04 | 0.01 | 40 | 1017.2 |
| 20260503224518 | 64 | 211 | 2.0 | 12.0 | 0.00 | 0.04 | 0.01 | 43 | 1017.3 |
| 20260503224007 | 64 | 192 | 4.0 | 13.0 | 0.00 | 0.04 | 0.01 | 44 | 1017.4 |
| 20260503223508 | 64 | 189 | 7.0 | 13.0 | 0.00 | 0.04 | 0.01 | 41 | 1017.5 |
| 20260503223021 | 64 | 207 | 6.0 | 13.0 | 0.00 | 0.04 | 0.01 | 42 | 1017.5 |
| 20260503222508 | 64 | 218 | 7.0 | 13.0 | 0.00 | 0.04 | 0.01 | 41 | 1017.5 |
| 20260503222008 | 65 | 186 | 4.0 | 8.0 | 0.00 | 0.04 | 0.01 | 41 | 1017.6 |
| 20260503221533 | 65 | 217 | 2.0 | 7.0 | 0.00 | 0.04 | 0.01 | 44 | 1017.6 |
| 20260503221011 | 65 | 192 | 3.0 | 10.0 | 0.00 | 0.04 | 0.01 | 44 | 1017.6 |
| 20260503220509 | 65 | 252 | 4.0 | 10.0 | 0.00 | 0.04 | 0.01 | 41 | 1017.7 |
| 20260503220026 | 65 | 247 | 2.0 | 13.0 | 0.00 | 0.04 | 0.01 | 41 | 1017.7 |
| 20260503215510 | 64 | 181 | 3.0 | 13.0 | 0.00 | 0.04 | 0.01 | 44 | 1017.8 |
| 20260503215008 | 65 | 198 | 6.0 | 13.0 | 0.00 | 0.04 | 0.01 | 41 | 1017.9 |
| 20260503214516 | 65 | 215 | 2.0 | 8.0 | 0.00 | 0.04 | 0.01 | 43 | 1017.9 |
| 20260503214008 | 65 | 287 | 4.0 | 10.0 | 0.00 | 0.04 | 0.01 | 41 | 1018.0 |
| 20260503213506 | 64 | 211 | 6.0 | 10.0 | 0.00 | 0.04 | 0.01 | 42 | 1018.0 |
| 20260503213029 | 65 | 238 | 3.0 | 8.0 | 0.00 | 0.04 | 0.01 | 41 | 1018.1 |
| 20260503212508 | 65 | 233 | 4.0 | 8.0 | 0.00 | 0.04 | 0.01 | 42 | 1018.1 |
| 20260503212009 | 65 | 298 | 2.0 | 9.0 | 0.00 | 0.04 | 0.01 | 44 | 1018.2 |
| 20260503211525 | 65 | 355 | 4.0 | 9.0 | 0.00 | 0.04 | 0.01 | 39 | 1018.3 |
| 20260503211009 | 66 | 315 | 4.0 | 8.0 | 0.00 | 0.04 | 0.01 | 42 | 1018.3 |
| 20260503210509 | 65 | 242 | 2.0 | 10.0 | 0.00 | 0.04 | 0.01 | 46 | 1018.4 |
| 20260503210028 | 65 | 261 | 2.0 | 10.0 | 0.00 | 0.04 | 0.01 | 40 | 1018.4 |
| 20260503205509 | 65 | 229 | 5.0 | 10.0 | 0.00 | 0.04 | 0.01 | 43 | 1018.5 |
| 20260503205017 | 64 | 213 | 5.0 | 11.0 | 0.00 | 0.04 | 0.01 | 41 | 1018.5 |
| 20260503204528 | 64 | 193 | 5.0 | 11.0 | 0.00 | 0.04 | 0.01 | 41 | 1018.5 |
| 20260503204008 | 64 | 240 | 4.0 | 14.0 | 0.00 | 0.04 | 0.01 | 46 | 1018.6 |
| 20260503203509 | 63 | 191 | 4.0 | 14.0 | 0.00 | 0.04 | 0.01 | 44 | 1018.8 |
| 20260503203017 | 64 | 178 | 6.0 | 13.0 | 0.00 | 0.04 | 0.01 | 45 | 1018.8 |
| 20260503202509 | 64 | 275 | 3.0 | 12.0 | 0.00 | 0.04 | 0.01 | 47 | 1019.0 |
| 20260503202010 | 63 | 178 | 7.0 | 12.0 | 0.00 | 0.04 | 0.01 | 46 | 1019.1 |
| 20260503201529 | 64 | 243 | 5.0 | 12.0 | 0.00 | 0.04 | 0.01 | 48 | 1019.1 |
| 20260503201002 | 65 | 207 | 4.0 | 9.0 | 0.00 | 0.04 | 0.01 | 50 | 1019.3 |
| 20260503200503 | 64 | 233 | 4.0 | 11.0 | 0.00 | 0.04 | 0.01 | 48 | 1019.4 |
| 20260503200010 | 63 | 328 | 3.0 | 11.0 | 0.00 | 0.04 | 0.01 | 51 | 1019.5 |
| 20260503195503 | 62 | 254 | 3.0 | 14.0 | 0.00 | 0.04 | 0.01 | 45 | 1019.5 |
| 20260503195003 | 62 | 213 | 4.0 | 14.0 | 0.00 | 0.04 | 0.01 | 47 | 1019.6 |
| 20260503194510 | 63 | 190 | 6.0 | 14.0 | 0.00 | 0.04 | 0.01 | 47 | 1019.8 |
| 20260503194004 | 63 | 225 | 4.0 | 8.0 | 0.00 | 0.04 | 0.01 | 50 | 1019.9 |
| 20260503193503 | 62 | 124 | 5.0 | 10.0 | 0.00 | 0.04 | 0.01 | 53 | 1019.9 |
| 20260503193018 | 62 | 206 | 4.0 | 10.0 | 0.00 | 0.04 | 0.01 | 51 | 1020.0 |
| 20260503192503 | 62 | 220 | 6.0 | 10.0 | 0.00 | 0.04 | 0.01 | 51 | 1020.1 |
| 20260503192010 | 62 | 233 | 5.0 | 11.0 | 0.00 | 0.04 | 0.01 | 50 | 1020.1 |
| 20260503191522 | 63 | 211 | 6.0 | 11.0 | 0.00 | 0.04 | 0.01 | 53 | 1020.2 |
| 20260503191006 | 62 | 168 | 5.0 | 11.0 | 0.00 | 0.04 | 0.01 | 51 | 1020.3 |
| 20260503190507 | 62 | 155 | 6.0 | 11.0 | 0.00 | 0.04 | 0.01 | 50 | 1020.3 |
| 20260503190025 | 63 | 186 | 6.0 | 10.0 | 0.00 | 0.04 | 0.01 | 49 | 1020.3 |
| 20260503185502 | 61 | 206 | 2.0 | 13.0 | 0.00 | 0.04 | 0.01 | 54 | 1020.4 |
| 20260503185003 | 61 | 179 | 7.0 | 12.0 | 0.00 | 0.04 | 0.01 | 52 | 1020.4 |
| 20260503184509 | 62 | 236 | 3.0 | 14.0 | 0.00 | 0.04 | 0.01 | 51 | 1020.4 |
| 20260503184003 | 62 | 193 | 1.0 | 14.0 | 0.00 | 0.04 | 0.01 | 55 | 1020.5 |
| 20260503183505 | 61 | 202 | 6.0 | 13.0 | 0.00 | 0.04 | 0.01 | 57 | 1020.5 |
| 20260503183023 | 60 | 173 | 3.0 | 13.0 | 0.00 | 0.04 | 0.01 | 54 | 1020.6 |
| 20260503182503 | 61 | 132 | 3.0 | 14.0 | 0.00 | 0.04 | 0.01 | 53 | 1020.7 |
| 20260503182007 | 60 | 170 | 7.0 | 13.0 | 0.00 | 0.04 | 0.01 | 52 | 1020.9 |
| 20260503181528 | 60 | 227 | 7.0 | 13.0 | 0.00 | 0.04 | 0.01 | 53 | 1021.0 |
| 20260503181004 | 59 | 172 | 3.0 | 13.0 | 0.00 | 0.04 | 0.01 | 58 | 1021.0 |
| 20260503180507 | 60 | 212 | 4.0 | 13.0 | 0.00 | 0.04 | 0.01 | 54 | 1021.0 |
| 20260503180025 | 61 | 212 | 4.0 | 12.0 | 0.00 | 0.04 | 0.01 | 56 | 1021.0 |
| 20260503175506 | 60 | 223 | 2.0 | 10.0 | 0.00 | 0.04 | 0.01 | 57 | 1021.0 |
| 20260503175010 | 60 | 153 | 4.0 | 10.0 | 0.00 | 0.04 | 0.01 | 60 | 1021.2 |
| 20260503174523 | 59 | 239 | 5.0 | 10.0 | 0.00 | 0.04 | 0.01 | 53 | 1021.4 |
| 20260503174006 | 60 | 248 | 4.0 | 10.0 | 0.00 | 0.04 | 0.01 | 55 | 1021.4 |
| 20260503173503 | 60 | 250 | 1.0 | 9.0 | 0.00 | 0.04 | 0.01 | 55 | 1021.3 |
| 20260503173036 | 58 | 261 | 2.0 | 9.0 | 0.00 | 0.04 | 0.01 | 54 | 1021.4 |
| 20260503172502 | 59 | 254 | 2.0 | 12.0 | 0.00 | 0.04 | 0.01 | 57 | 1021.4 |
| 20260503172004 | 58 | 202 | 5.0 | 12.0 | 0.00 | 0.04 | 0.01 | 55 | 1021.5 |
| 20260503171514 | 58 | 198 | 3.0 | 10.0 | 0.00 | 0.04 | 0.01 | 53 | 1021.5 |
| 20260503171004 | 58 | 208 | 2.0 | 10.0 | 0.00 | 0.04 | 0.01 | 56 | 1021.6 |
| 20260503170505 | 58 | 236 | 4.0 | 10.0 | 0.00 | 0.04 | 0.01 | 54 | 1021.7 |
| 20260503151008 | 53 | 300 | 2.0 | 6.0 | 0.00 | 0.04 | 0.01 | 73 | 1022.6 |
| 20260503150514 | 54 | 239 | 3.0 | 6.0 | 0.00 | 0.04 | 0.01 | 80 | 1022.6 |
| 20260503131010 | 44 | 167 | 0.0 | 5.0 | 0.00 | 0.04 | 0.01 | 96 | 1022.4 |
| 20260503130509 | 43 | 169 | 1.0 | 5.0 | 0.00 | 0.04 | 0.01 | 96 | 1022.5 |
| 20260503110502 | 42 | 114 | 1.0 | 3.0 | 0.00 | 0.04 | 0.01 | 95 | 1021.0 |
| 20260503090502 | 43 | 164 | 0.0 | 0.0 | 0.00 | 0.04 | 0.01 | 94 | 1020.5 |
| 20260503081514 | 42 | 164 | 0.0 | 0.0 | 0.01 | 0.04 | 0.01 | 94 | 1020.5 |
| 20260503081002 | 42 | 164 | 0.0 | 0.0 | 0.01 | 0.04 | 0.01 | 94 | 1020.4 |
| 20260503080502 | 42 | 164 | 0.0 | 0.0 | 0.01 | 0.04 | 0.01 | 94 | 1020.4 |
| 20260503072506 | 42 | 97 | 0.0 | 0.0 | 0.00 | 0.03 | 0.00 | 93 | 1020.2 |
| 20260503072004 | 42 | 97 | 0.0 | 2.0 | 0.00 | 0.03 | 0.00 | 93 | 1020.1 |
| 20260503071516 | 42 | 97 | 0.0 | 3.0 | 0.00 | 0.03 | 0.00 | 93 | 1020.0 |
| 20260503071003 | 42 | 97 | 1.0 | 3.0 | 0.00 | 0.03 | 0.00 | 93 | 1019.9 |
| 20260503070503 | 42 | 97 | 0.0 | 0.0 | 0.00 | 0.03 | 0.00 | 92 | 1019.9 |
| 20260503055002 | 42 | 97 | 1.0 | 2.0 | 0.00 | 0.03 | 0.00 | 91 | 1019.9 |
| 20260503054521 | 42 | 97 | 0.0 | 2.0 | 0.00 | 0.03 | 0.00 | 91 | 1019.9 |
| 20260503054005 | 42 | 97 | 0.0 | 2.0 | 0.00 | 0.03 | 0.00 | 91 | 1019.9 |
| 20260503053505 | 42 | 97 | 1.0 | 2.0 | 0.00 | 0.03 | 0.00 | 91 | 1019.8 |
| 20260503053015 | 42 | 97 | 0.0 | 1.0 | 0.00 | 0.03 | 0.00 | 91 | 1019.8 |
| 20260503052505 | 42 | 97 | 0.0 | 1.0 | 0.00 | 0.03 | 0.00 | 91 | 1019.8 |
| 20260503052006 | 42 | 97 | 0.0 | 2.0 | 0.00 | 0.03 | 0.00 | 91 | 1019.8 |
| 20260503051514 | 42 | 97 | 0.0 | 2.0 | 0.00 | 0.03 | 0.00 | 91 | 1019.8 |
| 20260503051008 | 42 | 97 | 1.0 | 2.0 | 0.00 | 0.03 | 0.00 | 90 | 1019.7 |
| 20260503050505 | 42 | 97 | 0.0 | 2.0 | 0.00 | 0.03 | 0.00 | 90 | 1019.7 |
| 20260503050007 | 42 | 97 | 0.0 | 0.0 | 0.00 | 0.03 | 0.00 | 90 | 1019.6 |
| 20260503045503 | 42 | 97 | 0.0 | 0.0 | 0.00 | 0.03 | 0.03 | 90 | 1019.6 |
| 20260503045002 | 42 | 97 | 0.0 | 0.0 | 0.00 | 0.03 | 0.03 | 90 | 1019.5 |
| 20260503044513 | 42 | 97 | 0.0 | 1.0 | 0.00 | 0.03 | 0.03 | 90 | 1019.5 |
| 20260503044004 | 42 | 97 | 0.0 | 1.0 | 0.00 | 0.03 | 0.03 | 89 | 1019.5 |
| 20260503043503 | 42 | 97 | 0.0 | 2.0 | 0.00 | 0.03 | 0.03 | 89 | 1019.4 |
| 20260503043008 | 42 | 97 | 0.0 | 2.0 | 0.00 | 0.03 | 0.03 | 89 | 1019.5 |
| 20260503042502 | 43 | 97 | 0.0 | 2.0 | 0.00 | 0.03 | 0.03 | 89 | 1019.5 |
| 20260503042002 | 43 | 97 | 0.0 | 2.0 | 0.00 | 0.03 | 0.03 | 89 | 1019.4 |
| 20260503041510 | 43 | 97 | 0.0 | 0.0 | 0.00 | 0.03 | 0.03 | 89 | 1019.4 |
| 20260503041003 | 43 | 97 | 0.0 | 1.0 | 0.00 | 0.03 | 0.03 | 89 | 1019.4 |
| 20260503040506 | 44 | 97 | 0.0 | 1.0 | 0.00 | 0.03 | 0.03 | 89 | 1019.3 |
| 20260503040014 | 44 | 97 | 0.0 | 2.0 | 0.00 | 0.03 | 0.03 | 89 | 1019.3 |
| 20260503035503 | 44 | 97 | 0.0 | 2.0 | 0.00 | 0.03 | 0.03 | 89 | 1019.3 |
| 20260503035003 | 44 | 97 | 0.0 | 2.0 | 0.00 | 0.03 | 0.03 | 89 | 1019.3 |
| 20260503034512 | 45 | 97 | 0.0 | 0.0 | 0.00 | 0.03 | 0.03 | 89 | 1019.3 |
| 20260503034002 | 45 | 97 | 0.0 | 0.0 | 0.00 | 0.03 | 0.03 | 89 | 1019.3 |
| 20260503033501 | 45 | 97 | 0.0 | 0.0 | 0.00 | 0.03 | 0.03 | 89 | 1019.3 |
| 20260503033013 | 45 | 97 | 0.0 | 0.0 | 0.00 | 0.03 | 0.03 | 89 | 1019.3 |
| 20260503032503 | 45 | 97 | 0.0 | 0.0 | 0.00 | 0.03 | 0.03 | 89 | 1019.3 |
| 20260503032005 | 45 | 97 | 0.0 | 0.0 | 0.00 | 0.03 | 0.03 | 89 | 1019.3 |
| 20260503031512 | 46 | 97 | 0.0 | 0.0 | 0.00 | 0.03 | 0.03 | 89 | 1019.4 |
| 20260503031003 | 46 | 97 | 0.0 | 0.0 | 0.00 | 0.03 | 0.03 | 89 | 1019.4 |
| 20260503030503 | 46 | 97 | 0.0 | 0.0 | 0.00 | 0.03 | 0.03 | 89 | 1019.3 |
| 20260503030013 | 46 | 97 | 0.0 | 0.0 | 0.00 | 0.03 | 0.03 | 89 | 1019.2 |
| 20260503025502 | 46 | 97 | 0.0 | 0.0 | 0.00 | 0.03 | 0.03 | 89 | 1019.2 |
| 20260503025002 | 45 | 97 | 0.0 | 0.0 | 0.00 | 0.03 | 0.03 | 89 | 1019.2 |
| 20260503024512 | 45 | 97 | 0.0 | 0.0 | 0.00 | 0.03 | 0.03 | 89 | 1019.1 |
| 20260503024003 | 45 | 97 | 0.0 | 0.0 | 0.00 | 0.03 | 0.03 | 88 | 1019.1 |
| 20260503023504 | 45 | 97 | 0.0 | 0.0 | 0.00 | 0.03 | 0.03 | 88 | 1019.1 |
| 20260503023013 | 45 | 97 | 0.0 | 0.0 | 0.00 | 0.03 | 0.03 | 88 | 1019.0 |
| 20260503022506 | 45 | 97 | 0.0 | 0.0 | 0.00 | 0.03 | 0.03 | 88 | 1019.0 |
| 20260503022003 | 45 | 97 | 0.0 | 0.0 | 0.00 | 0.03 | 0.03 | 88 | 1019.0 |
| 20260503021524 | 45 | 97 | 0.0 | 1.0 | 0.00 | 0.03 | 0.03 | 87 | 1019.0 |
| 20260503021006 | 45 | 97 | 0.0 | 1.0 | 0.00 | 0.03 | 0.03 | 87 | 1019.0 |
| 20260503020505 | 45 | 97 | 0.0 | 3.0 | 0.00 | 0.03 | 0.03 | 87 | 1019.0 |
| 20260503020030 | 45 | 97 | 0.0 | 6.0 | 0.00 | 0.03 | 0.03 | 87 | 1018.8 |